Preview of NWS' New Version of Forecast
This preview is not operational and should not be used for support decisions.

Regional Weather Roundup (RWR)

Issued by National Weather Service (NWS)

                            
000
ASUS44 KMEG 220010
RWRTN 
TENNESSEE HOURLY STATE WEATHER ROUNDUP
NATIONAL WEATHER SERVICE MEMPHIS TN
700 PM CDT SUN JUL 21 2019

TNZ002-004-019-021-049-052-054-088>092-220100-
WEST TENNESSEE
  
CITY           SKY/WX    TMP DP  RH WIND       PRES   REMARKS
MEMPHIS INTL   PTSUNNY   85  77  77 S10       29.95R HX  95           
NWS MEMPHIS      N/A     86 N/A N/A MISG        N/A                   
JACKSON        FAIR      86  78  77 S9        29.94S HX  98           
DYERSBURG      FAIR      86  77  74 CALM      29.94S HX  97           
SOMERVILLE     SUNNY     84  75  74 S6        29.95R HX  92           
COVINGTON      SUNNY     84  75  74 S6        29.93S HX  92           
UNION CITY     SUNNY     88  77  70 SW5       29.90S HX 100           
BOLIVAR        SUNNY     84  75  74 S5        29.95S HX  92           
PARIS          MOSUNNY   86  77  74 SW6       29.92S HX  97           
HUNTINGDON     SUNNY     86  77  74 SW6       29.92F HX  97           
LEXINGTON      MOSUNNY   86  77  74 S7        29.93S HX  97           
SELMER         SUNNY     84  77  79 VRB5      29.95F HX  94           
SAVANNAH       PTSUNNY   86  79  79 S6        29.95S HX  99           
$$

TNZ008-025-027-028-033-062-065-066-220100-
NORTH MIDDLE TENNESSEE
  
CITY           SKY/WX    TMP DP  RH WIND       PRES   REMARKS
NASHVILLE      PTSUNNY   86  72  62 SW6       29.95F HX  92           
PORTLAND       SUNNY     84  77  79 S7        29.94S HX  94           
CLARKSVILLE    FAIR      87  76  69 S8        29.91F HX  97           
LEBANON        CLEAR     84  75  74 S6        29.92F HX  92           
SMYRNA         FAIR      85  76  74 SW5       29.95F HX  94           
MURFREESBORO   CLEAR     86  73  66 SW8       29.93F HX  93           
LIVINGSTON     PTCLDY    79  73  83 S5        29.98F                  
GALLATIN       CLEAR     84  77  79 CALM      29.96F HX  94           
CROSSVILLE     FAIR      76  71  85 CALM      30.04S                  
ROCKWOOD       CLEAR     77  75  94 CALM      30.01F                  
$$

TNZ061-075-076-078-094-096-097-220100-
SOUTH MIDDLE TENNESSEE
  
CITY           SKY/WX    TMP DP  RH WIND       PRES   REMARKS
LAWRENCEBURG   PTCLDY    84  73  70 S6        29.97S HX  91           
LEWISBURG      CLEAR     84  73  70 S6        29.96S HX  91           
FAYETTEVILLE   SUNNY     82  75  78 SW3       29.98S                  
TULLAHOMA      CLEAR     81  73  78 SW6       29.98F                  
WINCHESTER     CLEAR     79  73  83 SE5       29.98F                  
MCMINNVILLE    PTCLDY    84  73  70 CALM      29.97F HX  91           
COLUMBIA       MOSUNNY   86  77  74 S7        29.94S HX  97           
SHELBYVILLE    MOSUNNY   81  72  74 S7        29.97S                  
$$

TNZ017-018-042-046-047-220100-
NORTHEAST TENNESSEE
  
CITY           SKY/WX    TMP DP  RH WIND       PRES   REMARKS
TRI CITIES     FAIR      85  70  60 W7        30.01R                  
ELIZABETHTON   FAIR      84  70  61 W6        30.01R                  
GREENEVILLE    MOCLDY    79  72  78 CALM      30.02R                  
$$

TNZ012-013-036-069-073-074-220100-
CENTRAL EAST TENNESSEE
  
CITY           SKY/WX    TMP DP  RH WIND       PRES   REMARKS
KNOXVILLE      FAIR      83  70  64 SW8       29.97R                  
OAK RIDGE      FAIR      83  72  69 CALM      29.99S                  
DOWNTOWN KNOXV PTCLDY    82  77  83 CALM      29.98R HX  91           
GATLINBURG     CLEAR     84  72  65 SW6       29.98R                  
MORRISTOWN     CLEAR     82  72  69 NW3       29.99S                  
JACKSBORO      CLEAR     77  73  88 CALM      30.03S                  
$$

TNZ083-085-099-220100-
SOUTHEAST TENNESSEE
  
CITY           SKY/WX    TMP DP  RH WIND       PRES   REMARKS
CHATTANOOGA    MOCLDY    87  72  60 SW12      29.98S HX  93           
DAYTON         CLEAR     84  73  70 CALM      29.96S HX  91           
$$

SKY/WX REPORTED AS FAIR MEANS FEW OR NO CLOUDS BELOW
12 THOUSAND FEET.